TimeCDT,TemperatureF,Dew PointF,Humidity,Sea Level PressureIn,VisibilityMPH,Wind Direction,Wind SpeedMPH,Gust SpeedMPH,PrecipitationIn,Events,Conditions,WindDirDegrees,DateUTC
12:53 AM,44.1,41.0,89,29.92,10.0,Calm,Calm,-,N/A,,Clear,0,2013-05-05 05:53:00
1:53 AM,42.1,39.0,89,29.90,10.0,Calm,Calm,-,N/A,,Clear,0,2013-05-05 06:53:00
2:53 AM,43.0,39.9,89,29.90,10.0,Calm,Calm,-,N/A,,Clear,0,2013-05-05 07:53:00
3:53 AM,41.0,37.9,89,29.90,10.0,Calm,Calm,-,N/A,,Clear,0,2013-05-05 08:53:00
4:53 AM,41.0,37.9,89,29.90,10.0,Calm,Calm,-,N/A,,Clear,0,2013-05-05 09:53:00
5:53 AM,39.9,37.9,93,29.90,10.0,Calm,Calm,-,N/A,,Clear,0,2013-05-05 10:53:00
6:53 AM,44.1,41.0,89,29.91,10.0,Calm,Calm,-,N/A,,Clear,0,2013-05-05 11:53:00
7:53 AM,54.0,46.0,75,29.90,10.0,Calm,Calm,-,N/A,,Clear,0,2013-05-05 12:53:00
8:53 AM,64.0,48.0,56,29.89,10.0,SSW,5.8,-,N/A,,Scattered Clouds,200,2013-05-05 13:53:00
9:53 AM,70.0,54.0,57,29.87,10.0,SW,16.1,21.9,0.00,,Partly Cloudy,220,2013-05-05 14:53:00
10:53 AM,71.1,51.1,49,29.86,10.0,SW,17.3,23.0,0.00,,Scattered Clouds,220,2013-05-05 15:53:00
11:53 AM,73.9,48.9,41,29.85,10.0,SW,15.0,27.6,N/A,,Scattered Clouds,230,2013-05-05 16:53:00
12:53 PM,75.9,43.0,31,29.84,10.0,WSW,18.4,24.2,N/A,,Partly Cloudy,240,2013-05-05 17:53:00
1:53 PM,75.9,37.0,24,29.83,10.0,WSW,17.3,26.5,N/A,,Clear,250,2013-05-05 18:53:00
2:53 PM,75.0,39.9,28,29.81,10.0,West,12.7,20.7,N/A,,Mostly Cloudy,260,2013-05-05 19:53:00
3:53 PM,73.0,42.1,33,29.82,10.0,West,12.7,25.3,N/A,,Partly Cloudy,280,2013-05-05 20:53:00
4:53 PM,68.0,41.0,37,29.84,10.0,WNW,16.1,24.2,N/A,,Clear,300,2013-05-05 21:53:00
5:53 PM,66.0,37.9,36,29.87,10.0,NW,16.1,-,N/A,,Clear,310,2013-05-05 22:53:00
7:53 PM,59.0,37.9,46,29.92,10.0,NW,9.2,-,N/A,,Clear,320,2013-05-06 00:53:00
8:53 PM,57.0,37.9,49,29.95,10.0,WNW,8.1,-,N/A,,Clear,300,2013-05-06 01:53:00
9:53 PM,55.0,37.9,53,29.97,10.0,NW,6.9,-,N/A,,Clear,310,2013-05-06 02:53:00
10:53 PM,52.0,39.0,61,29.98,10.0,WNW,6.9,-,N/A,,Clear,300,2013-05-06 03:53:00
11:53 PM,52.0,39.9,63,29.98,10.0,WNW,8.1,-,N/A,,Clear,300,2013-05-06 04:53:00